Regional Weather Roundup
Issued by NWS Little Rock, AR

Home | Current Version | Previous Version | Graphics & Text | Print | Product List | Glossary On
Versions: 1 2 3 4 5 6 7 8 9 10 11 12 13 14 15 16 17 18 19 20 21 22 23 24 25 26 27 28 29 30 31 32 33 34 35 36 37 38 39 40 41 42 43 44 45 46 47 48 49 50
000
ASUS44 KLZK 281505
RWRLZK

WEATHER ROUNDUP FOR ARKANSAS
NATIONAL WEATHER SERVICE LITTLE ROCK AR
1000 AM CDT TUE MAR 28 2017

NOTE: "FAIR" INDICATES FEW OR NO CLOUDS BELOW 12,000 FEET WITH NO
SIGNIFICANT WEATHER AND/OR OBSTRUCTIONS TO VISIBILITY.

ARZ001-003-010-029-281600-
NORTHWEST ARKANSAS

CITY           SKY/WX    TMP DP  RH WIND       PRES   REMARKS
FAYETTEVILLE   CLOUDY    54  50  86 E8        30.03R
FORT SMITH     MOSUNNY   55  51  86 E7        30.02S
HARRISON       CLOUDY    54  50  86 SE8       30.05R
BENTONVILLE    CLOUDY    55  46  71 E10       30.03S
ROGERS         CLOUDY    54  48  80 E9        30.04R
SILOAM SPGS    PTSUNNY   55  46  71 E7        30.02S
HIGHFILL       CLOUDY    55  48  77 E12       30.02S
SPRINGDALE     CLOUDY    55  48  76 E8        30.04S
$$

ARZ004-005-016-281600-
NORTH CENTRAL ARKANSAS

CITY           SKY/WX    TMP DP  RH WIND       PRES   REMARKS
BATESVILLE     CLOUDY    61  52  72 NE7       30.07R
FLIPPIN        CLOUDY    57  48  72 E3        30.03R
MTN HOME       CLOUDY    56  51  84 SE5       30.05R
$$

ARZ040-041-281600-
WEST CENTRAL ARKANSAS

CITY           SKY/WX    TMP DP  RH WIND       PRES   REMARKS
MENA           CLOUDY    55  55 100 E7        30.02S
MOUNT IDA      MOSUNNY   59  53  80 VRB5      29.99S
$$

ARZ009-017-025-026-028-281600-
NORTHEAST ARKANSAS

CITY           SKY/WX    TMP DP  RH WIND       PRES   REMARKS
JONESBORO      CLOUDY    59  53  80 NE10      30.06R
NEWPORT        CLOUDY    60  55  83 NE13      30.06R
WALNUT RIDGE   MOSUNNY   61  52  72 NE10      30.06S
BLYTHEVILLE    CLOUDY    60  54  80 NE13      30.06R
NW BLYTHEVILLE PTSUNNY   61  54  77 NE12      30.05R
$$

ARZ022-023-033-042-044-281600-
CENTRAL ARKANSAS

CITY           SKY/WX    TMP DP  RH WIND       PRES   REMARKS
LITTLE ROCK    CLOUDY    60  57  89 NE9       30.03R
N LITTLE ROCK    N/A     60  55  85 E9        30.03R
JACKSONVILLE   PTSUNNY   63  63 100 NE10      30.03S
CONWAY           N/A     59  55  88 NE8       30.02S
SEARCY         CLOUDY    62  57  83 NE9       30.05R
HOT SPRINGS    MOSUNNY   62  56  80 E8        30.02R
RUSSELLVILLE   MOSUNNY   61  53  75 E8        30.03S
CLINTON        CLOUDY    61  54  77 VRB3      30.05S
$$

ARZ036-281600-
EAST ARKANSAS

CITY           SKY/WX    TMP DP  RH WIND       PRES   REMARKS
WEST MEMPHIS   MOSUNNY   64  59  83 NE9       30.02R
$$

ARZ050-053-066-070-073-281600-
SOUTHWEST ARKANSAS

CITY           SKY/WX    TMP DP  RH WIND       PRES   REMARKS
CAMDEN         SUNNY     68  55  64 NE5       29.99S
TEXARKANA      PTSUNNY   64  57  78 E6        29.96F
EL DORADO      CLOUDY    65  58  78 NE8       29.99R
DE QUEEN       SUNNY     63  56  78 E8        29.96S
$$

ARZ056-057-069-281600-
SOUTHEAST ARKANSAS

CITY           SKY/WX    TMP DP  RH WIND       PRES   REMARKS
PINE BLUFF     MOSUNNY   63  57  81 NE6       30.02R
STUTTGART      SUNNY     64  52  63 NE7       30.03R
MONTICELLO     SUNNY     69  58  67 NE6       29.99R

$$





USA.gov is the U.S. government's official web portal to all federal, state and local government web resources and services.